Weather History for Morrisville, VT

Change the Weather History Date:

Wednesday, February 22, 2012

  Actual Average Record
Temperature  
Mean Temperature 38 °F 21 °F  
Max Temperature 45 °F 32 °F 62 °F (1997)
Min Temperature 30 °F 9 °F -6 °F (1999)
Degree Days  
Heating Degree Days 27 44  
Month to date heating degree days 883 1038  
Since 1 July heating degree days 4888 5700  
Cooling Degree Days 0 0  
Month to date cooling degree days 0 0  
Year to date cooling degree days 0 0  
Moisture  
Dew Point 30 °F    
Average Humidity 66    
Maximum Humidity 92    
Minimum Humidity 40    
Precipitation  
Precipitation 0.10 in 0.06 in 0.34 in (1949)
Month to date precipitation 0.14 1.36  
Year to date precipitation 1.03 3.90  
Sea Level Pressure  
Sea Level Pressure 29.56 in    
Wind  
Wind Speed 4 mph (SSW)    
Max Wind Speed 15 mph    
Max Gust Speed 22 mph    
Visibility 10 miles    
Events Rain , Snow    
T = Trace of Precipitation, MM = Missing Value Source: NWS Daily Summary

Daily Weather History Graph

Daily Weather History Graph

Search for Another Location

Airport:

Trip Planner

Search our weather history database for the weather conditions in past years. The results will help you decide how hot, cold, wet, or windy it might be!

Date:

Astronomy

Feb. 22, 2012 Rise Set
Actual Time 6:40 AM EST 5:28 PM EST
Civil Twilight 6:10 AM EST 5:57 PM EST
Nautical Twilight 5:37 AM EST 6:31 PM EST
Astronomical Twilight 5:03 AM EST 7:05 PM EST
Moon 6:33 AM EST (2/22) 6:37 PM EST (2/22)
Length of Visible Light 11h 46m
Length of Day
10h 47m
New Moon, 1% of the Moon is Illuminated
Feb 22
New Moon
Feb 29
First Quarter
Mar 8
Full
Mar 14
Last Quarter
Mar 22
New

Hourly Weather History & Observations

Time (EST) Temp. Windchill Dew Point Humidity Pressure Visibility Wind Dir Wind Speed Gust Speed Precip Events Conditions
12:34 AM 30.2 °F 25.4 °F 28.4 °F 93% 29.74 in 10.0 mi South 4.6 mph - 0.00 in   Overcast
12:54 AM 30.0 °F 26.5 °F 28.0 °F 92% 29.75 in 10.0 mi South 3.5 mph - 0.00 in   Overcast
1:54 AM 30.0 °F 25.2 °F 28.0 °F 92% 29.73 in 10.0 mi South 4.6 mph - N/A   Overcast
2:54 AM 30.0 °F - 28.0 °F 92% 29.69 in 10.0 mi Calm Calm - N/A   Overcast
3:54 AM 30.9 °F - 28.9 °F 92% 29.66 in 10.0 mi Calm Calm - 0.00 in Snow Light Snow
4:02 AM 30.2 °F - 28.4 °F 93% 29.63 in 9.0 mi Calm Calm - 0.00 in Snow Light Snow
4:54 AM 32.0 °F 28.7 °F 30.9 °F 96% 29.65 in 9.0 mi SSE 3.5 mph - 0.00 in Snow Light Snow
5:54 AM 33.1 °F 30.0 °F 30.9 °F 92% 29.63 in 9.0 mi SE 3.5 mph - 0.01 in Snow Light Snow
6:03 AM 33.8 °F - 30.2 °F 87% 29.60 in 10.0 mi Calm Calm - 0.00 in Rain Light Rain
6:54 AM 33.1 °F - 32.0 °F 96% 29.62 in 10.0 mi Calm Calm - 0.00 in Rain Light Rain
7:54 AM 34.0 °F - 32.0 °F 92% 29.62 in 10.0 mi Calm Calm - 0.00 in   Overcast
8:54 AM 36.0 °F - 34.0 °F 93% 29.60 in 10.0 mi Calm Calm - 0.00 in Rain Light Rain
9:54 AM 39.0 °F 34.8 °F 33.1 °F 79% 29.60 in 10.0 mi Variable 5.8 mph - 0.00 in   Mostly Cloudy
10:54 AM 42.1 °F 37.7 °F 30.9 °F 65% 29.59 in 10.0 mi SSW 6.9 mph 16.1 mph N/A   Partly Cloudy
1:54 PM 44.1 °F 41.5 °F 24.1 °F 45% 29.52 in 10.0 mi Variable 4.6 mph - N/A   Mostly Cloudy
2:54 PM 45.0 °F 39.7 °F 21.9 °F 40% 29.51 in 10.0 mi South 10.4 mph 19.6 mph N/A   Overcast
3:54 PM 44.1 °F 39.0 °F 21.9 °F 42% 29.50 in 10.0 mi South 9.2 mph - N/A   Overcast
4:54 PM 43.0 °F 40.3 °F 23.0 °F 45% 29.50 in 10.0 mi SW 4.6 mph - N/A   Overcast
5:54 PM 39.9 °F 35.1 °F 30.9 °F 70% 29.53 in 10.0 mi Variable 6.9 mph - 0.00 in Rain Light Rain
6:23 PM 39.2 °F 35.0 °F 30.2 °F 70% 29.51 in 10.0 mi South 5.8 mph - 0.00 in Rain Light Rain
6:54 PM 37.9 °F 32.7 °F 32.0 °F 79% 29.54 in 10.0 mi South 6.9 mph - 0.00 in   Overcast
7:54 PM 37.0 °F 34.5 °F 33.1 °F 86% 29.52 in 10.0 mi WSW 3.5 mph - 0.00 in   Overcast
8:25 PM 37.4 °F 33.8 °F 33.8 °F 87% 29.51 in 10.0 mi WSW 4.6 mph - 0.01 in Rain Light Rain
8:54 PM 35.1 °F 32.2 °F 33.1 °F 92% 29.54 in 10.0 mi SSW 3.5 mph - 0.07 in Rain Rain
9:31 PM 33.8 °F 30.8 °F 33.8 °F 100% 29.50 in 10.0 mi SSE 3.5 mph - 0.02 in Rain Light Rain
9:40 PM 33.8 °F - 33.8 °F 100% 29.50 in 10.0 mi Calm Calm - 0.02 in   Overcast
9:54 PM 34.0 °F - 33.1 °F 96% 29.52 in 10.0 mi Calm Calm - 0.02 in   Overcast
10:05 PM 33.8 °F - 30.2 °F 87% 29.49 in 10.0 mi Calm Calm - N/A   Overcast
10:39 PM 33.8 °F - 32.0 °F 93% 29.47 in 10.0 mi Calm Calm - N/A   Overcast
10:54 PM 33.1 °F - 30.9 °F 92% 29.48 in 10.0 mi Calm Calm - 0.00 in Rain Light Rain
10:58 PM 33.8 °F - 30.2 °F 87% 29.46 in 10.0 mi Calm Calm - 0.00 in Rain Light Rain
11:37 PM 33.8 °F - 30.2 °F 87% 29.43 in 10.0 mi Calm Calm - 0.00 in   Overcast
11:47 PM 32.0 °F - 30.2 °F 93% 29.43 in 10.0 mi Calm Calm - 0.00 in   Overcast
11:54 PM 32.0 °F - 30.9 °F 96% 29.44 in 10.0 mi Calm Calm - 0.00 in   Overcast